Tracking 20232 objects as of 21-Jan-2020
HD Live streaming from Space Station
objects crossing your sky now

ICON

Track ICON now!
10-day predictions


NORAD ID: 44628
Int'l Code: 2019-068A
Perigee: 586.5 km
Apogee: 613.5 km
Inclination: 27.0 °
Period: 96.5 minutes
Semi major axis: 6971 km
RCS: Unknown
Launch date: October 11, 2019
Source: United States (US)
Launch site: Pegasus launched from Eastern Range Air Space (ERAS)
aabbcc
Your satellite tracking list
Your tracking list is empty




NASA's NSSDC Master Catalog

Two Line Element Set (TLE):
1 44628U 19068A   20021.03203997  .00000268  00000-0  63115-5 0  9993
2 44628  26.9935 281.7177 0019332 157.1273 203.0157 14.91625908 15231
Source of the keplerian elements: AFSPC